Location: Nag� el Ma?a??a
(24.0667°N, 32.8833°E)
Time: 10:13:13
(UTC+00:00)

X-37B - Visible Passes

Search period start: 29 November 2022 00:00
Search period end: 09 December 2022 00:00
Orbit: 277 x 277 km, 45.0° (Epoch: 01 November)

Date Brightness Start Highest point End Pass type
(mag) Time Alt. Az. Time Alt. Az. Time Alt. Az.
29 Nov 0.7 02:59:35 39° SSW 02:59:35 39° SSW 03:01:34 10° SSE visible
30 Nov 2.5 03:00:46 13° SSW 03:00:46 13° SSW 03:01:26 10° S visible
02 Dec 1.4 15:55:32 10° S 15:57:31 22° SE 15:57:51 21° ESE visible
03 Dec -0.2 15:55:43 10° SW 15:58:08 68° SE 15:58:57 35° ENE visible
04 Dec 1.1 15:56:30 10° WSW 15:58:48 36° NW 15:59:58 21° NNE visible
05 Dec 2.5 15:57:55 10° WNW 15:59:33 16° NW 16:00:54 11° N visible
